Weather History for Glasgow, United Kingdom

Change the Weather History Date:

Monday, September 30, 2013

  Actual Average Record
Temperature  
Mean Temperature 55 °F -  
Max Temperature 60 °F 53 °F 73 °F (2011)
Min Temperature 50 °F 42 °F 41 °F (2003)
Degree Days  
Heating Degree Days 10    
Growing Degree Days 5 (Base 50)    
Moisture  
Dew Point 48 °F    
Average Humidity 76    
Maximum Humidity 88    
Minimum Humidity 63    
Precipitation  
Precipitation 0.00 in - - ()
Sea Level Pressure  
Sea Level Pressure 29.83 in    
Wind  
Wind Speed 13 mph ()    
Max Wind Speed 18 mph    
Max Gust Speed 29 mph    
Visibility 6.2 miles    
Events      
Averages and records for this station are not official NWS values.
T = Trace of Precipitation, MM = Missing Value Source: Averaged Metar Reports

Daily Weather History Graph

Daily Weather History Graph

Search for Another Location

Airport:

Trip Planner

Search our weather history database for the weather conditions in past years. The results will help you decide how hot, cold, wet, or windy it might be!

Date:

Astronomy

Sep. 30, 2013 Rise Set
Actual Time 7:18 AM BST 6:55 PM BST
Civil Twilight 6:41 AM BST 7:32 PM BST
Nautical Twilight 5:58 AM BST 8:15 PM BST
Astronomical Twilight 5:13 AM BST 9:00 PM BST
Moon 2:00 AM BST (9/30) 4:54 PM BST (9/30)
Length of Visible Light 12h 50m
Length of Day
11h 36m
Waning Crescent, 21% of the Moon is Illuminated
Sep 30
Waning Crescent
Oct 5
New
Oct 12
First Quarter
Oct 19
Full
Oct 27
Last Quarter

Hourly Weather History & Observations

Time (BST) Temp. Dew Point Humidity Pressure Visibility Wind Dir Wind Speed Gust Speed Precip Events Conditions
12:20 AM 51.8 °F 46.4 °F 82% 29.89 in - ENE 13.8 mph - N/A   Clear
12:50 AM 51.8 °F 46.4 °F 82% 29.89 in - ENE 13.8 mph - N/A   Clear
1:20 AM 51.8 °F 46.4 °F 82% 29.89 in - ENE 13.8 mph - N/A   Clear
1:50 AM 51.8 °F 46.4 °F 82% 29.86 in - ENE 15.0 mph - N/A   Clear
2:20 AM 51.8 °F 46.4 °F 82% 29.86 in - ENE 15.0 mph - N/A   Clear
2:50 AM 51.8 °F 46.4 °F 82% 29.86 in - ENE 15.0 mph - N/A   Clear
3:20 AM 50.0 °F 46.4 °F 87% 29.86 in - ENE 12.7 mph - N/A   Clear
3:50 AM 51.8 °F 46.4 °F 82% 29.86 in - ENE 12.7 mph - N/A   Clear
4:20 AM 51.8 °F 46.4 °F 82% 29.83 in - ENE 12.7 mph - N/A   Clear
4:50 AM 51.8 °F 46.4 °F 82% 29.83 in - ENE 12.7 mph - N/A   Clear
5:20 AM 51.8 °F 46.4 °F 82% 29.83 in - ENE 12.7 mph - N/A   Clear
5:50 AM 50.0 °F 46.4 °F 87% 29.83 in - ENE 11.5 mph - N/A   Clear
6:20 AM 50.0 °F 46.4 °F 87% 29.83 in - ENE 12.7 mph - N/A   Clear
6:50 AM 51.8 °F 46.4 °F 82% 29.83 in 6.2 mi ENE 15.0 mph - N/A   Unknown
7:20 AM 51.8 °F 48.2 °F 88% 29.83 in - ENE 15.0 mph - N/A   Clear
7:50 AM 51.8 °F 48.2 °F 88% 29.83 in - East 12.7 mph - N/A   Clear
8:20 AM 51.8 °F 48.2 °F 88% 29.83 in - East 15.0 mph - N/A   Clear
8:50 AM 53.6 °F 48.2 °F 82% 29.83 in - ENE 13.8 mph - N/A   Clear
9:20 AM 55.4 °F 48.2 °F 77% 29.83 in 6.2 mi ENE 13.8 mph - N/A   Partly Cloudy
9:50 AM 55.4 °F 48.2 °F 77% 29.83 in 6.2 mi ENE 16.1 mph - N/A   Partly Cloudy
10:20 AM 55.4 °F 48.2 °F 77% 29.83 in - East 16.1 mph - N/A   Clear
10:50 AM 55.4 °F 48.2 °F 77% 29.83 in 6.2 mi ENE 15.0 mph - N/A   Scattered Clouds
11:20 AM 59.0 °F 50.0 °F 72% 29.83 in 6.2 mi East 13.8 mph - N/A   Scattered Clouds
11:50 AM 59.0 °F 48.2 °F 67% 29.83 in 6.2 mi East 15.0 mph - N/A   Scattered Clouds
12:20 PM 59.0 °F 46.4 °F 63% 29.83 in 6.2 mi East 18.4 mph - N/A   Scattered Clouds
12:50 PM 59.0 °F 48.2 °F 67% 29.80 in 6.2 mi East 17.3 mph - N/A   Scattered Clouds
1:20 PM 59.0 °F 48.2 °F 67% 29.80 in 6.2 mi East 16.1 mph - N/A   Scattered Clouds
1:50 PM 59.0 °F 48.2 °F 67% 29.80 in 6.2 mi East 17.3 mph - N/A   Mostly Cloudy
2:20 PM 60.8 °F 48.2 °F 63% 29.80 in 6.2 mi East 16.1 mph - N/A   Scattered Clouds
2:50 PM 60.8 °F 48.2 °F 63% 29.80 in 6.2 mi East 17.3 mph - N/A   Mostly Cloudy
3:20 PM 60.8 °F 50.0 °F 68% 29.80 in 6.2 mi East 15.0 mph - N/A   Scattered Clouds
3:50 PM 59.0 °F 48.2 °F 67% 29.80 in 6.2 mi East 16.1 mph - N/A   Mostly Cloudy
4:20 PM 59.0 °F 48.2 °F 67% 29.80 in 6.2 mi East 16.1 mph - N/A   Mostly Cloudy
4:50 PM 59.0 °F 48.2 °F 67% 29.80 in 6.2 mi ENE 16.1 mph - N/A   Mostly Cloudy
5:20 PM 59.0 °F 48.2 °F 67% 29.80 in 6.2 mi East 16.1 mph - N/A   Mostly Cloudy
5:50 PM 59.0 °F 48.2 °F 67% 29.80 in 6.2 mi ENE 15.0 mph - N/A   Mostly Cloudy
6:20 PM 57.2 °F 48.2 °F 72% 29.80 in 6.2 mi ENE 16.1 mph - N/A   Scattered Clouds
6:50 PM 57.2 °F 46.4 °F 67% 29.80 in 6.2 mi ENE 16.1 mph - N/A   Scattered Clouds
7:20 PM 55.4 °F 46.4 °F 72% 29.80 in 6.2 mi ENE 17.3 mph - N/A   Scattered Clouds
7:50 PM 55.4 °F 46.4 °F 72% 29.83 in 6.2 mi East 13.8 mph - N/A   Scattered Clouds
8:20 PM 55.4 °F 46.4 °F 72% 29.83 in 6.2 mi ENE 13.8 mph - N/A   Scattered Clouds
8:50 PM 55.4 °F 46.4 °F 72% 29.83 in 6.2 mi ENE 15.0 mph - N/A   Scattered Clouds
9:20 PM 55.4 °F 48.2 °F 77% 29.83 in 6.2 mi ENE 15.0 mph - N/A   Scattered Clouds
9:50 PM 55.4 °F 48.2 °F 77% 29.83 in 6.2 mi ENE 13.8 mph - N/A   Scattered Clouds
10:20 PM 53.6 °F 48.2 °F 82% 29.83 in 6.2 mi ENE 15.0 mph 28.8 mph N/A   Unknown
10:50 PM 53.6 °F 48.2 °F 82% 29.83 in - ENE 13.8 mph - N/A   Clear
11:20 PM 53.6 °F 48.2 °F 82% 29.86 in - ENE 13.8 mph - N/A   Clear
11:50 PM 53.6 °F 48.2 °F 82% 29.86 in - ENE 13.8 mph - N/A   Clear